Location: Arbon
(43.0005°N, 0.7472°E)
Time: 07:41:23
(UTC+00:00)

Vanguard 1 - Pass Details

Date: 05 December 2020
Orbit: 648 x 3834 km, 34.3° (Epoch: 21 January)

Event Time Altitude Azimuth Distance (km) Brightness Sun altitude
Rises 03:42:25 0° 235° (SW) 2,989 - -37.7°
Reaches altitude 10° 03:44:41 10° 224° (SW) 2,176 - -37.3°
Maximum altitude 03:48:57 31° 161° (SSE) 1,476 - -36.5°
Exits shadow 03:50:06 28° 140° (SE) 1,628 11.4 -36.3°
Drops below altitude 10° 03:54:59 10° 102° (ESE) 3,132 13.4 -35.4°
Sets 03:58:58 0° 94° (E) 4,587 14.5 -34.7°
